Terminal Aerodrome Forecast
Issued by NWS

Current Version | Previous Version | Graphics & Text | Print | Product List | Glossary On
Versions: 1 2 3 4 5 6 7 8 9 10 11 12 13 14 15 16 17 18 19 20
908
FTUS41 KILN 170549
TAFLUK
TAF
KLUK 170549Z 1706/1806 08004KT P6SM OVC025
     FM171200 11005KT P6SM BKN250
     FM171400 13007KT P6SM SCT250
     FM180300 17009KT P6SM OVC070 WS020/20040KT=

USA.gov is the U.S. government's official web portal to all federal, state and local government web resources and services.